Location: La Fredeussais
(48.1780°N, 1.3980°W)
Time: 17:18:04
(UTC+00:00)

Cosmos 2315 Rocket - Pass Details

Date: 09 May 2021
Orbit: 965 x 1003 km, 82.9° (Epoch: 16 June)

Event Time Altitude Azimuth Distance (km) Brightness Sun altitude
Exits shadow 20:31:31 - 166° (SSE) 3,314 6.3 -9.2°
Reaches altitude 10° 20:33:02 10° 163° (SSE) 2,765 5.9 -9.4°
Maximum altitude 20:39:05 49° 90° (E) 1,281 4.3 -10.2°
Drops below altitude 10° 20:45:12 10° 18° (NNE) 2,786 6.7 -11.0°
Sets 20:47:48 0° 14° (NNE) 3,739 7.5 -11.3°
